Wind_Speed
17 17 15 17 23 24 25 27 26 28 32 35 36 35 35 35 35 34 34 34 35 37 39 40 41 42 43 45 46 47 48 49 51 52 52 53 53 54 54 54 55 56 56 57
17 16 16 16 18 21 21 22 26 29 33 34 35 35 33 32 31 31 31 34 37 39 41 42 43 45 46 47 48 49 50 51 52 52 52 53 53 53 54 55 55 56 57 58
16 18 19 20 23 24 26 27 28 31 34 36 37 38 36 34 32 31 33 36 38 40 42 43 44 45 47 48 49 49 49 49 49 49 50 51 51 51 52 54 55 56 57 57
12 16 20 25 27 26 28 30 30 33 36 42 44 43 41 39 37 36 37 37 37 38 40 40 41 41 42 43 42 43 44 44 45 47 48 49 50 51 52 53 54 55 55 55
10 11 18 24 26 27 27 29 29 30 32 35 38 39 40 40 39 39 38 37 36 34 34 36 38 39 40 40 40 41 42 43 44 46 48 49 50 51 51 52 53 53 52 52
11 14 18 21 22 23 24 29 30 30 30 32 34 34 34 34 34 35 36 36 36 36 36 37 37 38 40 40 40 41 42 43 44 45 47 48 48 49 49 50 50 50 50 49
13 15 18 19 20 21 22 24 25 25 26 27 29 30 29 29 29 29 30 31 32 34 35 36 37 37 38 40 40 41 42 43 43 44 44 45 46 47 47 47 47 47 46 46
14 15 16 16 17 18 19 20 21 22 22 23 24 24 25 26 27 28 29 31 32 33 34 35 35 36 37 38 39 40 40 41 41 41 42 42 43 43 44 44 43 43 42 42
15 15 15 15 15 16 17 18 19 19 20 20 20 21 23 24 25 27 28 28 29 30 31 32 33 34 35 36 36 37 37 38 38 39 40 40 40 40 40 40 40 39 38 38
15 15 13 13 14 15 15 16 16 18 19 20 20 20 21 23 24 24 24 25 26 27 29 30 31 32 33 34 34 35 36 37 37 37 37 37 37 37 36 35 34 33 32 31
15 15 14 12 12 13 14 15 15 16 17 18 19 19 20 20 20 21 22 23 24 25 26 27 29 30 31 32 33 34 34 35 34 34 33 32 32 31 30 29 27 26 24 23
14 14 13 13 12 12 13 13 14 14 15 15 16 17 18 18 18 19 20 21 22 23 25 26 28 29 30 30 31 31 30 30 29 28 27 27 25 24 23 22 21 20 18 15
14 14 13 12 11 11 11 11 12 12 13 13 14 15 15 15 15 17 18 19 20 22 23 25 26 27 27 27 27 26 25 24 23 22 22 21 19 17 16 16 15 14 13 11
14 13 12 11 10 10 10 10 10 10 10 11 11 11 12 12 14 15 16 18 19 21 22 23 23 23 23 23 23 22 20 19 18 18 17 16 15 13 12 11 11 11 10 10
13 12 10 10 9 9 8 8 9 8 8 8 8 8 10 11 13 14 16 17 18 19 20 20 20 20 20 20 19 19 18 16 15 15 14 13 12 12 11 10 10 10 10 11
13 11 10 9 8 8 8 7 7 6 6 6 7 8 9 11 13 14 15 16 17 18 18 18 18 18 18 18 17 16 15 15 14 14 13 12 12 11 11 11 11 12 12 13
12 11 9 8 8 7 7 6 5 5 5 6 7 8 10 11 13 14 15 16 16 17 16 16 16 16 16 16 16 15 14 14 14 13 13 13 12 12 12 12 13 13 13 14
12 10 9 8 7 7 6 5 4 4 4 5 7 8 10 11 13 14 15 15 16 16 16 16 16 16 15 15 15 14 14 13 13 13 13 13 13 12 12 12 13 14 14 14
11 10 8 7 6 5 5 4 3 3 4 5 7 8 10 12 13 14 15 15 16 15 15 16 16 15 14 14 13 13 12 12 12 12 13 13 12 12 12 12 12 13 13 13
11 9 8 7 6 5 4 3 3 3 4 5 7 8 10 12 13 14 16 16 17 16 16 16 15 14 13 12 11 11 11 11 12 12 12 12 11 11 11 11 11 12 12 12
11 9 8 7 6 5 4 3 3 2 4 5 6 8 10 12 13 14 16 17 17 18 17 17 15 13 12 11 11 10 10 11 11 11 11 11 11 10 10 10 10 10 10 10
10 9 8 7 6 6 4 3 2 2 3 4 5 7 10 12 13 15 16 17 18 18 18 17 16 14 12 11 10 9 9 10 10 10 10 10 10 10 9 9 9 9 9 9
11 9 8 8 7 6 6 4 3 2 2 3 5 6 9 11 13 14 16 18 19 19 19 19 17 15 13 11 9 8 9 10 10 10 10 10 10 10 9 9 9 9 9 9
11 10 9 8 8 7 7 6 4 3 2 3 4 5 8 10 12 14 16 18 19 20 20 20 19 17 15 12 10 9 9 10 10 10 10 10 10 10 10 10 9 9 9 9
11 10 10 10 9 8 8 7 6 5 3 2 3 4 6 8 11 13 16 17 18 19 19 20 19 18 16 15 14 11 10 10 10 11 11 11 11 11 11 11 10 10 10 10
11 11 10 10 10 9 9 8 7 6 5 4 3 3 5 7 9 12 14 16 17 17 18 18 19 19 20 20 17 14 11 11 11 10 11 11 11 11 12 12 12 12 12 12
12 12 11 11 10 10 9 9 8 7 6 5 4 2 3 5 7 10 12 15 16 17 18 18 19 19 20 21 21 18 15 14 13 12 11 11 11 12 12 13 13 14 14 14
Wind_Direction
242 262 263 240 222 219 221 226 230 233 237 245 250 253 257 254 250 248 249 252 255 258 261 263 264 265 266 269 271 273 274 275 276 277 278 279 280 281 282 283 285 286 288 291
243 254 264 264 249 238 240 234 234 237 239 246 250 253 255 252 250 251 255 258 259 260 262 264 266 268 269 271 272 273 274 276 276 277 277 278 279 281 282 284 287 289 291 292
244 241 248 255 255 256 256 254 251 248 248 250 256 260 265 269 270 269 267 265 264 265 265 266 268 270 270 270 271 272 273 275 276 277 279 280 282 284 287 289 290 291 292 292
255 246 244 251 256 260 262 262 261 257 255 255 259 264 266 271 273 274 273 273 272 270 269 269 269 269 270 270 272 273 275 278 281 284 286 288 290 291 291 291 291 291 292 292
263 249 250 252 258 260 264 264 262 261 260 261 263 265 268 270 273 274 275 277 277 276 273 271 269 270 271 276 279 281 284 287 289 290 292 292 292 292 292 292 292 292 292 293
278 262 256 262 267 268 270 268 266 267 268 269 270 272 273 274 275 275 274 275 275 275 276 275 277 281 285 289 292 293 294 294 294 293 293 293 293 293 293 293 294 294 294 294
291 280 275 277 276 275 274 274 272 272 272 272 273 274 277 277 276 275 275 275 276 279 283 287 291 294 294 295 296 296 296 296 296 295 295 296 296 296 296 296 296 296 295 295
301 293 289 287 281 278 278 278 277 277 276 277 277 278 279 278 279 279 282 284 286 288 292 295 297 297 297 298 298 298 298 299 299 299 299 298 298 298 297 297 297 297 297 297
308 303 297 292 287 285 284 284 283 283 283 284 285 286 286 286 288 288 290 291 293 295 296 298 299 300 300 301 301 301 301 301 301 301 301 301 300 300 299 299 299 298 298 298
312 312 307 299 293 291 289 289 288 286 288 289 292 293 291 291 292 294 295 296 298 298 300 301 302 303 304 305 305 305 305 304 304 303 303 303 303 303 302 302 302 302 301 301
316 315 310 307 302 297 293 293 295 293 292 294 295 297 298 298 296 296 299 301 303 304 305 307 308 309 310 310 309 308 308 307 307 306 306 307 308 308 308 308 309 310 310 309
321 318 313 312 308 302 299 296 298 299 297 298 299 301 302 302 302 303 305 307 309 311 312 313 314 314 314 314 314 313 312 312 311 311 312 314 315 315 316 317 319 321 323 325
320 318 316 315 311 308 307 305 304 303 304 304 305 306 307 309 311 313 315 316 318 319 320 320 320 320 321 321 322 322 321 321 320 321 322 324 325 326 327 330 333 339 346 353
320 319 317 317 315 312 310 310 310 309 309 310 312 314 315 318 321 323 325 326 327 327 327 327 328 329 330 330 331 332 333 333 333 334 335 338 342 344 347 351 356 1 10 23
320 318 317 317 317 314 314 314 315 316 318 322 324 327 330 332 332 333 334 334 334 334 334 335 336 338 340 341 342 343 345 346 346 347 350 355 360 4 11 15 19 26 38 49
320 317 315 316 317 316 319 320 322 326 330 334 337 339 342 343 343 342 341 340 341 341 342 343 345 347 349 351 353 354 357 359 2 5 7 11 15 22 27 32 39 48 57 65
318 314 310 312 315 315 318 320 324 334 345 350 352 352 352 351 349 348 347 348 349 349 351 353 354 355 356 358 1 5 8 11 14 17 21 26 30 35 41 47 52 58 65 70
313 308 305 307 313 314 312 313 321 341 356 359 1 0 358 356 355 354 354 356 356 357 357 358 359 359 359 1 5 10 13 19 23 26 31 36 39 43 48 53 58 62 67 70
310 304 298 298 303 306 307 309 321 340 356 3 5 4 2 1 1 2 3 2 1 1 1 0 359 359 0 3 9 13 18 24 30 34 38 39 42 47 52 55 59 63 67 71
305 298 293 291 289 289 295 301 315 339 358 5 8 8 7 6 6 7 7 6 6 6 5 4 1 1 3 8 14 19 25 30 33 35 36 37 41 46 51 55 58 63 68 72
300 291 286 282 278 275 276 284 301 330 355 4 8 10 10 9 9 9 9 9 10 9 7 4 2 4 8 13 16 20 26 31 34 35 35 36 39 44 49 54 58 63 69 75
295 285 278 274 270 264 261 266 282 316 348 0 5 7 9 10 11 11 12 12 12 10 8 7 7 10 13 15 16 22 29 32 34 34 36 38 41 44 48 54 60 66 73 78
290 278 271 268 264 258 254 254 261 286 329 352 1 6 9 12 14 15 16 16 15 15 13 13 14 18 21 20 25 34 38 38 36 36 40 43 44 47 52 58 63 70 76 82
284 271 264 261 258 253 249 246 248 260 293 331 353 3 9 12 14 15 16 16 17 18 18 20 23 28 30 32 39 44 44 41 40 42 45 48 49 52 58 63 68 73 78 83
280 267 258 255 252 249 244 241 242 247 263 293 329 354 6 12 15 17 19 20 20 22 23 27 32 34 36 40 43 46 48 47 47 49 50 53 55 58 61 65 69 74 80 87
275 264 255 251 248 245 242 240 242 245 252 265 291 334 1 13 18 20 22 24 25 25 28 32 38 40 42 42 42 45 50 52 54 56 56 57 60 63 66 69 73 78 84 89
267 259 251 245 243 242 240 238 239 244 249 252 258 286 341 10 18 22 25 27 27 29 31 35 39 42 44 45 45 48 52 55 56 58 60 61 64 68 71 74 77 80 84 88
Height
5748 5748 5749 5752 5754 5757 5757 5759 5761 5762 5763 5763 5763 5761 5758 5758 5760 5761 5763 5764 5765 5765 5765 5764 5764 5763 5762 5761 5759 5757 5755 5753 5751 5748 5745 5742 5739 5736 5732 5729 5725 5722 5718 5714
5745 5746 5747 5747 5748 5750 5751 5751 5752 5754 5755 5755 5754 5752 5751 5751 5751 5753 5754 5755 5756 5755 5754 5754 5753 5752 5750 5749 5747 5745 5742 5740 5738 5735 5732 5729 5726 5722 5719 5715 5712 5708 5705 5701
5741 5742 5743 5744 5743 5743 5744 5745 5747 5747 5748 5746 5745 5744 5744 5743 5744 5746 5746 5746 5745 5744 5744 5743 5741 5740 5738 5736 5734 5732 5730 5727 5725 5722 5719 5716 5712 5709 5705 5702 5698 5694 5691 5687
5737 5738 5740 5739 5737 5738 5738 5739 5740 5741 5741 5739 5738 5738 5738 5737 5738 5738 5737 5736 5735 5734 5733 5732 5730 5728 5726 5724 5722 5720 5717 5714 5712 5709 5706 5703 5699 5696 5692 5688 5684 5681 5677 5673
5733 5734 5733 5732 5731 5732 5732 5732 5732 5732 5732 5731 5731 5731 5731 5731 5731 5731 5729 5728 5726 5724 5723 5722 5720 5718 5715 5713 5710 5708 5705 5702 5699 5697 5693 5690 5686 5683 5679 5674 5670 5667 5663 5658
5729 5729 5728 5727 5726 5727 5728 5725 5725 5725 5725 5724 5724 5724 5724 5724 5723 5723 5721 5720 5718 5716 5714 5712 5710 5707 5705 5702 5700 5697 5694 5691 5688 5685 5681 5677 5673 5669 5665 5660 5656 5652 5648 5644
5726 5725 5723 5723 5722 5723 5723 5721 5720 5719 5718 5718 5717 5717 5717 5716 5715 5715 5714 5712 5710 5708 5705 5703 5701 5698 5696 5693 5690 5687 5684 5680 5676 5672 5669 5665 5660 5656 5651 5647 5643 5638 5635 5631
5723 5721 5721 5719 5718 5718 5717 5715 5714 5714 5713 5712 5711 5711 5710 5709 5708 5707 5706 5704 5702 5700 5698 5695 5693 5690 5687 5684 5680 5677 5673 5669 5665 5661 5657 5653 5648 5643 5639 5634 5630 5626 5622 5618
5720 5719 5716 5715 5714 5713 5711 5710 5710 5709 5708 5707 5706 5706 5705 5704 5702 5701 5699 5698 5696 5693 5691 5688 5685 5682 5678 5674 5671 5667 5663 5659 5655 5650 5646 5641 5637 5632 5628 5623 5619 5615 5611 5607
5716 5714 5713 5712 5710 5709 5708 5707 5706 5705 5704 5703 5702 5701 5700 5698 5697 5695 5694 5691 5689 5687 5684 5681 5678 5674 5670 5666 5662 5658 5654 5649 5645 5641 5636 5632 5627 5622 5618 5613 5609 5605 5601 5598
5714 5712 5710 5709 5708 5706 5705 5704 5702 5701 5700 5699 5697 5696 5695 5693 5692 5690 5688 5686 5684 5681 5678 5675 5671 5667 5663 5659 5654 5650 5645 5640 5636 5632 5627 5623 5618 5613 5609 5605 5601 5598 5594 5590
5712 5710 5708 5707 5705 5704 5702 5701 5699 5698 5696 5695 5694 5692 5691 5689 5687 5685 5684 5681 5679 5676 5672 5669 5665 5661 5657 5652 5647 5643 5638 5633 5629 5624 5620 5616 5612 5608 5603 5600 5596 5593 5589 5586
5710 5708 5706 5704 5703 5701 5700 5699 5697 5695 5694 5692 5691 5689 5688 5686 5684 5682 5680 5677 5674 5671 5668 5664 5660 5656 5651 5647 5642 5637 5632 5627 5623 5619 5615 5612 5608 5604 5601 5597 5594 5591 5588 5585
5708 5706 5704 5703 5701 5700 5698 5697 5695 5694 5692 5691 5689 5687 5686 5684 5682 5680 5677 5674 5671 5668 5664 5660 5656 5652 5647 5643 5638 5633 5629 5624 5620 5617 5613 5609 5606 5603 5600 5597 5594 5591 5589 5587
5706 5704 5703 5701 5700 5698 5697 5696 5694 5692 5691 5689 5688 5686 5685 5683 5681 5678 5676 5672 5669 5666 5662 5658 5654 5649 5645 5640 5636 5631 5627 5623 5619 5616 5612 5609 5606 5603 5601 5598 5595 5593 5591 5589
5704 5702 5701 5700 5699 5697 5696 5695 5693 5692 5690 5689 5688 5686 5684 5682 5680 5677 5674 5671 5668 5664 5660 5656 5652 5648 5644 5639 5635 5631 5627 5623 5620 5616 5613 5610 5608 5605 5602 5600 5598 5596 5594 5593
5702 5701 5700 5699 5698 5697 5695 5694 5693 5692 5690 5689 5688 5686 5684 5682 5679 5677 5674 5670 5667 5663 5659 5655 5651 5647 5643 5639 5636 5632 5628 5625 5621 5618 5615 5612 5610 5607 5605 5603 5601 5600 5599 5598
5701 5700 5699 5698 5697 5696 5695 5694 5693 5692 5691 5689 5688 5686 5684 5682 5680 5677 5673 5670 5666 5663 5659 5655 5651 5647 5644 5640 5636 5633 5629 5626 5623 5621 5618 5615 5613 5611 5609 5607 5606 5604 5603 5602
5699 5698 5697 5697 5696 5695 5695 5694 5693 5692 5691 5690 5688 5687 5685 5682 5680 5677 5674 5670 5667 5663 5659 5655 5651 5648 5644 5641 5637 5634 5631 5629 5626 5623 5621 5619 5617 5615 5613 5611 5610 5609 5608 5607
5697 5696 5696 5695 5695 5695 5694 5694 5693 5692 5691 5690 5689 5687 5685 5683 5680 5677 5674 5671 5667 5663 5659 5655 5652 5648 5645 5641 5638 5636 5633 5631 5629 5626 5624 5622 5620 5618 5617 5615 5614 5613 5612 5611
5695 5695 5694 5694 5694 5694 5694 5694 5693 5693 5692 5690 5689 5688 5686 5684 5681 5678 5675 5671 5668 5663 5660 5656 5652 5648 5645 5642 5640 5637 5635 5633 5631 5629 5627 5625 5623 5621 5620 5618 5617 5616 5616 5615
5693 5693 5693 5693 5693 5693 5693 5693 5693 5693 5692 5691 5690 5689 5687 5685 5682 5679 5676 5672 5669 5665 5661 5656 5652 5648 5645 5642 5640 5639 5637 5635 5633 5631 5629 5627 5626 5624 5622 5621 5620 5619 5619 5618
5691 5691 5691 5692 5692 5692 5693 5693 5693 5692 5692 5691 5691 5690 5688 5686 5684 5681 5678 5674 5670 5666 5662 5657 5653 5649 5645 5643 5641 5640 5638 5637 5635 5633 5631 5630 5628 5627 5625 5624 5623 5622 5622 5621
5689 5689 5689 5690 5691 5691 5692 5692 5692 5692 5692 5692 5691 5690 5689 5687 5685 5682 5679 5676 5672 5668 5664 5660 5655 5651 5648 5645 5643 5641 5640 5638 5637 5635 5634 5632 5631 5630 5628 5627 5626 5625 5625 5625
5686 5687 5687 5688 5689 5690 5690 5691 5691 5692 5692 5692 5692 5691 5690 5688 5687 5684 5681 5678 5674 5671 5667 5663 5658 5655 5651 5648 5645 5644 5642 5641 5639 5638 5637 5635 5634 5633 5632 5631 5630 5629 5628 5628
5684 5684 5685 5686 5687 5688 5689 5689 5690 5691 5691 5692 5692 5691 5691 5689 5688 5686 5683 5680 5677 5674 5671 5667 5663 5659 5655 5652 5650 5647 5646 5644 5643 5641 5640 5639 5638 5637 5635 5634 5634 5633 5632 5632
5681 5682 5683 5684 5685 5686 5687 5688 5689 5690 5691 5691 5691 5691 5691 5690 5689 5688 5685 5683 5680 5677 5674 5670 5667 5664 5661 5658 5655 5652 5650 5648 5647 5645 5644 5643 5642 5641 5640 5639 5638 5638 5637 5637